Cloud_Cover
2 64 87 67 56 100 100 100 100 100 100 100 100 100 100 63 100 95 48 99 18 48 97 23 52 100 92 5 2 2 4 0 19 80 97 96 100 100 98 100 100 70 23
46 15 2 0 0 1 6 79 100 100 37 54 100 100 98 98 100 84 99 11 5 100 100 21 100 100 13 12 2 20 15 23 34 64 100 100 100 99 100 100 100 97 37
100 100 65 1 0 0 0 0 0 37 63 40 97 59 71 19 24 36 0 4 78 95 100 99 100 12 6 6 15 34 28 48 32 33 79 100 100 100 100 100 100 100 96
98 100 100 17 0 0 0 0 0 0 0 0 0 0 0 16 7 1 3 29 86 99 100 100 54 5 1 7 19 31 37 30 56 51 61 100 100 100 96 100 100 100 100
12 100 99 9 0 0 0 0 0 0 0 0 0 0 24 28 0 0 5 42 100 98 100 100 6 0 0 0 0 9 14 13 68 93 100 100 100 100 99 100 100 100 100
1 94 100 32 0 0 0 0 0 0 0 0 0 14 58 0 55 1 96 45 100 100 85 5 0 52 55 46 100 78 86 29 74 100 100 95 100 100 100 95 100 100 100
54 35 100 22 0 0 0 0 0 4 19 20 34 30 42 5 12 79 99 100 100 100 8 0 12 2 2 1 77 95 86 64 97 79 63 92 100 100 100 99 100 100 83
45 100 75 0 0 0 15 14 60 73 97 99 70 62 23 26 65 69 97 100 100 79 2 0 4 10 0 5 5 70 56 88 90 100 44 100 100 100 100 100 100 100 100
100 100 72 4 48 75 100 100 100 100 100 100 72 38 84 62 97 100 100 100 97 3 0 5 5 2 85 98 67 85 100 99 99 100 100 100 100 100 100 100 100 100 100
100 100 100 100 100 100 100 100 100 100 100 94 32 100 100 17 100 100 100 96 4 2 6 15 98 19 100 100 50 100 100 100 100 100 100 100 100 100 100 98 64 100 100
100 100 100 100 100 100 100 100 100 100 42 96 100 100 28 100 100 100 100 7 0 9 7 22 16 100 100 100 88 81 88 79 100 100 100 100 100 100 100 100 50 89 83
100 100 100 100 100 100 100 100 86 48 100 100 100 100 100 100 100 100 100 75 62 2 19 26 38 100 100 100 93 100 100 84 99 100 93 99 100 100 100 100 100 100 71
100 100 100 100 100 100 100 100 61 100 100 61 100 100 100 100 100 100 100 100 84 4 19 57 98 100 100 100 100 100 100 100 100 100 100 100 100 100 100 100 100 99 100
100 100 100 100 100 100 100 100 100 87 46 100 100 100 100 100 100 100 100 100 98 64 88 100 78 100 73 86 100 100 93 83 100 100 100 100 100 100 100 100 100 98 100
100 100 100 100 100 100 100 100 87 99 100 100 100 100 100 71 80 92 64 61 32 44 92 100 100 100 100 100 100 96 84 99 100 100 100 100 100 100 100 100 96 100 100
100 100 100 100 100 100 100 100 100 100 100 100 100 52 9 79 100 100 100 100 100 100 96 92 100 100 100 100 99 100 100 95 98 100 100 100 100 100 100 100 97 100 93
100 100 100 100 100 100 100 100 100 100 100 100 100 100 61 97 100 100 100 100 100 94 84 100 100 100 100 100 92 100 100 92 97 100 100 100 100 100 100 100 100 100 100
89 100 100 100 100 100 100 100 100 100 100 100 100 70 100 100 100 100 100 100 100 100 100 100 100 100 100 100 92 100 100 99 100 100 100 100 100 100 100 98 97 95 100
100 100 100 100 100 100 100 100 100 100 100 100 100 100 100 100 100 100 100 51 100 100 100 100 100 99 100 84 100 92 100 100 100 100 100 100 100 100 100 94 100 100 100
100 100 100 100 100 100 100 100 89 88 100 100 82 97 100 100 100 100 100 96 62 76 98 99 100 83 100 100 100 100 100 34 73 43 93 100 100 100 100 100 100 100 100
100 100 100 100 100 100 70 82 45 37 78 96 100 100 99 77 100 100 100 100 100 65 100 100 100 100 100 100 100 100 100 100 99 100 100 98 100 100 100 100 100 100 94
100 100 100 100 76 76 73 27 35 50 76 100 100 100 100 100 100 97 100 100 100 97 100 100 100 100 100 100 100 86 91 100 92 100 100 100 100 99 100 100 81 94 71
100 100 100 55 38 52 41 69 67 99 100 100 100 100 100 100 100 100 100 100 100 100 100 100 100 100 100 100 100 100 100 91 99 100 100 100 100 87 92 100 100 100 100
100 41 25 12 27 89 95 93 100 100 100 100 100 100 100 100 100 100 100 100 100 100 100 100 100 100 100 100 100 99 100 100 100 99 100 93 100 100 96 100 100 100 100
5 5 5 12 34 100 100 100 100 100 100 100 100 100 100 100 100 100 100 100 100 100 100 100 100 100 100 100 96 99 88 100 98 92 97 100 100 100 100 100 100 100 100
96 16 7 23 43 76 100 100 100 100 100 100 100 100 100 100 100 100 100 100 100 100 100 100 100 100 92 91 90 99 100 100 100 100 99 98 99 100 100 100 100 100 100